Rugby, ND

1:57 AM CST on December 09, 2019 (GMT -0600)
Rugby Municipal

Weather History for KRUG - October, 2019

Change the Weather History Date:

Thursday, October 31, 2019

  Actual Average Record
Temperature  
Mean Temperature 26 °F -  
Max Temperature 37 °F 48 °F 68 °F (1967)
Min Temperature 14 °F 27 °F -5 °F (1991)
Degree Days  
Heating Degree Days 40    
Moisture  
Dew Point 21 °F    
Average Humidity 76    
Maximum Humidity 87    
Minimum Humidity 48    
Precipitation  
Precipitation 0.00 in - - ()
Sea Level Pressure  
Sea Level Pressure 29.91 in    
Wind  
Wind Speed 11 mph (WSW)    
Max Wind Speed 21 mph    
Max Gust Speed 26 mph    
Visibility 10 miles    
Events      
Averages and records for this station are not official NWS values.
T = Trace of Precipitation, MM = Missing Value Source: NWS Daily Summary

Daily Weather History Graph

Daily Weather History Graph

Search for Another Location

Airport or City:

Astronomy

Oct. 31, 2019 Rise Set
Actual Time 8:24 AM CDT 6:22 PM CDT
Civil Twilight 7:51 AM CDT 6:55 PM CDT
Nautical Twilight 7:14 AM CDT 7:32 PM CDT
Astronomical Twilight 6:38 AM CDT 8:08 PM CDT
Moon 12:28 PM CDT (10/31) 9:05 PM CDT (10/31)
Length of Visible Light 11h 03m
Length of Day
9h 58m
Waxing Crescent, 16% of the Moon is Illuminated
Oct 31
Waxing Crescent
Nov 4
First Quarter
Nov 12
Full
Nov 19
Last Quarter
Nov 26
New

Hourly Weather History & Observations

Time (CDT) Temp. Windchill Dew Point Humidity Pressure Visibility Wind Dir Wind Speed Gust Speed Precip Events Conditions
12:15 AM 15.8 °F 4.2 °F 12.2 °F 86% 30.11 in 10.0 mi SSW 9.2 mph - N/A   Clear
12:35 AM 15.8 °F 4.2 °F 10.4 °F 79% 30.10 in 10.0 mi SSW 9.2 mph - N/A   Clear
12:55 AM 15.8 °F 3.4 °F 10.4 °F 79% 30.09 in 10.0 mi SSW 10.4 mph - N/A   Clear
1:15 AM 15.8 °F 4.2 °F 10.4 °F 79% 30.09 in 10.0 mi SSW 9.2 mph - N/A   Clear
1:35 AM 14.0 °F 3.9 °F 10.4 °F 86% 30.08 in 10.0 mi SSW 6.9 mph - N/A   Clear
1:55 AM 15.8 °F 5.1 °F 10.4 °F 79% 30.08 in 10.0 mi SSW 8.1 mph - N/A   Clear
2:15 AM 17.6 °F 6.4 °F 12.2 °F 79% 30.07 in 10.0 mi SSW 9.2 mph - N/A   Clear
2:35 AM 17.6 °F 6.4 °F 12.2 °F 79% 30.06 in 10.0 mi SSW 9.2 mph - N/A   Clear
2:55 AM 17.6 °F 6.4 °F 12.2 °F 79% 30.05 in 10.0 mi SSW 9.2 mph - N/A   Partly Cloudy
3:15 AM 19.4 °F 9.5 °F 12.2 °F 74% 30.05 in 10.0 mi SSW 8.1 mph - N/A   Partly Cloudy
3:35 AM 19.4 °F 8.6 °F 14.0 °F 80% 30.03 in 10.0 mi SSW 9.2 mph - N/A   Partly Cloudy
3:55 AM 21.2 °F 9.5 °F 14.0 °F 74% 30.03 in 10.0 mi SSW 11.5 mph - N/A   Mostly Cloudy
4:15 AM 19.4 °F 8.6 °F 14.0 °F 80% 30.02 in 10.0 mi SW 9.2 mph - N/A   Mostly Cloudy
4:35 AM 19.4 °F 8.6 °F 14.0 °F 80% 30.01 in 10.0 mi SW 9.2 mph - N/A   Overcast
4:55 AM 21.2 °F 11.7 °F 15.8 °F 80% 30.00 in 10.0 mi SW 8.1 mph - N/A   Overcast
5:15 AM 21.2 °F 10.9 °F 15.8 °F 80% 29.98 in 10.0 mi SSW 9.2 mph - N/A   Overcast
5:35 AM 19.4 °F 9.5 °F 15.8 °F 86% 29.98 in 10.0 mi SSW 8.1 mph - N/A   Scattered Clouds
5:55 AM 19.4 °F 8.6 °F 15.8 °F 86% 29.97 in 10.0 mi SSW 9.2 mph - N/A   Clear
6:15 AM 19.4 °F 8.6 °F 15.8 °F 86% 29.96 in 10.0 mi SW 9.2 mph - N/A   Clear
6:35 AM 19.4 °F 8.6 °F 15.8 °F 86% 29.95 in 10.0 mi SSW 9.2 mph - N/A   Clear
6:55 AM 19.4 °F 8.6 °F 14.0 °F 80% 29.95 in 10.0 mi SSW 9.2 mph - N/A   Clear
7:15 AM 19.4 °F 7.9 °F 15.8 °F 86% 29.94 in 10.0 mi SSW 10.4 mph - N/A   Clear
7:35 AM 19.4 °F 7.2 °F 15.8 °F 86% 29.93 in 10.0 mi SSW 11.5 mph - N/A   Unknown
7:55 AM 19.4 °F 7.9 °F 15.8 °F 86% 29.92 in 10.0 mi SSW 10.4 mph - N/A   Unknown
8:15 AM 19.4 °F 8.6 °F 15.8 °F 86% 29.92 in 10.0 mi SSW 9.2 mph - N/A   Unknown
8:35 AM 19.4 °F 8.6 °F 15.8 °F 86% 29.91 in 10.0 mi SSW 9.2 mph - N/A   Mostly Cloudy
8:55 AM 21.2 °F 9.5 °F 15.8 °F 80% 29.90 in 10.0 mi SSW 11.5 mph - N/A   Mostly Cloudy
9:15 AM 23.0 °F 12.4 °F 17.6 °F 80% 29.90 in 10.0 mi SW 10.4 mph - N/A   Mostly Cloudy
9:35 AM 24.8 °F 12.9 °F 19.4 °F 80% 29.89 in 10.0 mi SSW 13.8 mph - N/A   Mostly Cloudy
9:55 AM 24.8 °F 14.0 °F 19.4 °F 80% 29.89 in 10.0 mi SW 11.5 mph - N/A   Scattered Clouds
10:15 AM 26.6 °F 15.7 °F 19.4 °F 74% 29.89 in 10.0 mi SSW 12.7 mph - N/A   Scattered Clouds
10:35 AM 26.6 °F 15.7 °F 19.4 °F 74% 29.88 in 10.0 mi SSW 12.7 mph - N/A   Partly Cloudy
10:55 AM 26.6 °F 15.2 °F 19.4 °F 74% 29.87 in 10.0 mi SW 13.8 mph - N/A   Mostly Cloudy
11:15 AM 28.4 °F 17.5 °F 19.4 °F 69% 29.87 in 10.0 mi SW 13.8 mph - N/A   Overcast
11:35 AM 30.2 °F 19.8 °F 19.4 °F 64% 29.86 in 10.0 mi WSW 13.8 mph - N/A   Overcast
11:55 AM 30.2 °F 18.9 °F 19.4 °F 64% 29.86 in 10.0 mi SW 16.1 mph - N/A   Overcast
12:15 PM 32.0 °F 21.6 °F 19.4 °F 60% 29.86 in 10.0 mi WSW 15.0 mph - N/A   Overcast
1:15 PM 35.6 °F 25.9 °F 19.4 °F 52% 29.83 in 10.0 mi WSW 16.1 mph - N/A   Mostly Cloudy
1:35 PM 35.6 °F 25.2 °F 19.4 °F 52% 29.83 in 10.0 mi WSW 18.4 mph - N/A   Clear
1:55 PM 35.6 °F 26.2 °F 19.4 °F 52% 29.81 in 10.0 mi WSW 15.0 mph - N/A   Clear
2:15 PM 37.4 °F 28.2 °F 19.4 °F 48% 29.81 in 10.0 mi West 16.1 mph - N/A   Partly Cloudy
2:35 PM 37.4 °F 28.9 °F 21.2 °F 52% 29.80 in 10.0 mi West 13.8 mph - N/A   Mostly Cloudy
2:55 PM 37.4 °F 28.2 °F 23.0 °F 56% 29.80 in 10.0 mi West 16.1 mph - N/A   Overcast
3:15 PM 37.4 °F 28.2 °F 24.8 °F 60% 29.80 in 10.0 mi West 16.1 mph - N/A   Overcast
3:35 PM 37.4 °F 28.5 °F 24.8 °F 60% 29.80 in 10.0 mi WNW 15.0 mph 21.9 mph N/A   Overcast
3:55 PM 37.4 °F 28.2 °F 26.6 °F 65% 29.80 in 10.0 mi West 16.1 mph - N/A   Overcast
4:15 PM 37.4 °F 28.2 °F 28.4 °F 70% 29.80 in 10.0 mi West 16.1 mph 23.0 mph N/A   Overcast
4:35 PM 37.4 °F 29.3 °F 28.4 °F 70% 29.80 in 10.0 mi WNW 12.7 mph 18.4 mph N/A   Overcast
4:55 PM 37.4 °F 28.9 °F 30.2 °F 75% 29.80 in 10.0 mi WNW 13.8 mph 20.7 mph N/A   Overcast
5:15 PM 37.4 °F 27.8 °F 30.2 °F 75% 29.81 in 10.0 mi WNW 17.3 mph - N/A   Overcast
5:35 PM 37.4 °F 26.9 °F 30.2 °F 75% 29.81 in 10.0 mi WNW 20.7 mph - N/A   Overcast
5:55 PM 37.4 °F 27.5 °F 30.2 °F 75% 29.82 in 10.0 mi WNW 18.4 mph 26.5 mph N/A   Overcast
6:15 PM 37.4 °F 27.8 °F 30.2 °F 75% 29.83 in 10.0 mi WNW 17.3 mph - N/A   Overcast
6:35 PM 35.6 °F 25.9 °F 30.2 °F 81% 29.83 in 10.0 mi WNW 16.1 mph - N/A   Overcast
6:55 PM 35.6 °F 25.5 °F 30.2 °F 81% 29.83 in 10.0 mi WNW 17.3 mph - N/A   Overcast
7:15 PM 35.6 °F 26.6 °F 30.2 °F 81% 29.84 in 10.0 mi WNW 13.8 mph 21.9 mph N/A   Overcast
7:35 PM 35.6 °F 26.6 °F 30.2 °F 81% 29.84 in 10.0 mi WNW 13.8 mph 21.9 mph N/A   Overcast
7:55 PM 35.6 °F 27.1 °F 30.2 °F 81% 29.84 in 10.0 mi WNW 12.7 mph - N/A   Overcast
8:35 PM 35.6 °F 26.2 °F 30.2 °F 81% 29.85 in 10.0 mi WNW 15.0 mph - N/A   Overcast
8:55 PM 35.6 °F 27.1 °F 30.2 °F 81% 29.85 in 10.0 mi WNW 12.7 mph - N/A   Overcast
9:15 PM 35.6 °F 27.1 °F 30.2 °F 81% 29.86 in 10.0 mi WNW 12.7 mph - N/A   Overcast
9:35 PM 35.6 °F 28.0 °F 30.2 °F 81% 29.86 in 10.0 mi WNW 10.4 mph - N/A   Overcast
9:55 PM 35.6 °F 28.6 °F 30.2 °F 81% 29.86 in 10.0 mi WNW 9.2 mph - N/A   Overcast
10:15 PM 33.8 °F 25.8 °F 30.2 °F 87% 29.86 in 10.0 mi WNW 10.4 mph - N/A   Overcast
10:35 PM 33.8 °F 26.4 °F 30.2 °F 87% 29.86 in 10.0 mi NW 9.2 mph - N/A   Overcast
10:55 PM 33.8 °F 25.3 °F 30.2 °F 87% 29.87 in 10.0 mi WNW 11.5 mph - N/A   Overcast
11:15 PM 33.8 °F 23.5 °F 30.2 °F 87% 29.87 in 10.0 mi NW 16.1 mph - N/A   Overcast
11:35 PM 33.8 °F 24.8 °F 30.2 °F 87% 29.88 in 10.0 mi WNW 12.7 mph - N/A   Overcast
11:55 PM 33.8 °F 23.9 °F 30.2 °F 87% 29.88 in 10.0 mi NW 15.0 mph 21.9 mph N/A   Overcast